Find Insat 2B

NORAD ID: 22724 Int'l Des: 1993-048 Owner: ISRO Country: IN operational
HEOCIRCULAR

当前视图

正在加载3D地球...

About Insat 2B

Insat 2B (NORAD 22724) is a satellite launched Jul 22, 1993 by ISRO of IN. It operates in HEO, CIRCULAR orbit with a mass of 1931.00 kg.

即将过境

Passes for default location (London). Set your location on the main map for personalized predictions.

高度历史

Loading altitude history...

两行轨道根数

1 22724U 93048B 26195.55480109 -.00000062 00000-0 00000-0 0 9995
2 22724 14.4584 2.3835 0015918 220.9813 160.5062 0.99965826120855
Epoch: Jul 14, 2026 • Age: 8 hours

当前状态

高度 35868.1 km
远地点 / 近地点 N/A
速度 3.07 km/s
星下点 10.37°N, 107.88°W
发射日期 Jul 22, 1993
运行时间 32.9 years
类型 other

技术详情

分类 Payload
质量 1931.00 kg
干质量 916.00 kg
总质量 1931.00 kg
长度 1.70 m
直径 1.90 m
跨度 23.00 m
形状 Box + Pan + Ant
制造商 ISRO
平台类型 I2K
阶段状态 In Orbit
所有者/国家 ISRO/IN

Most Searched